This is the latest recevied weather packets stored in our database for station/object EA1IRT-1. If no packets are shown the sender has not sent any weather packets the latest 10 day(s).
| Time | Temp. | Humidity | Pressure | Rain* | Wind** | Luminosity | Snow |
|---|---|---|---|---|---|---|---|
| 1777500517 | 14.44° C | 100% | 1010.2 hPa | - | - | - | - |
| 1777499589 | 14.44° C | 100% | 1009.9 hPa | - | - | - | - |
| 1777498689 | 14.44° C | 100% | 1009.9 hPa | - | - | - | - |
| 1777497782 | 15° C | 100% | 1009.9 hPa | - | - | - | - |
| 1777496882 | 15° C | 100% | 1009.7 hPa | - | - | - | - |
| 1777495982 | 15° C | 100% | 1009.4 hPa | - | - | - | - |
| 1777493285 | 15.56° C | 97% | 1008.6 hPa | - | - | - | - |
| 1777492382 | 15.56° C | 95% | 1008.3 hPa | - | - | - | - |
| 1777491482 | 16.11° C | 94% | 1008 hPa | - | - | - | - |
| 1777490585 | 16.11° C | 93% | 1007.9 hPa | - | - | - | - |
| 1777489660 | 16.11° C | 92% | 1007.8 hPa | - | - | - | - |
| 1777488732 | 16.11° C | 97% | 1007.7 hPa | - | - | - | - |
| 1777487832 | 16.11° C | 92% | 1007.5 hPa | - | - | - | - |
| 1777486932 | 16.11° C | 93% | 1007.4 hPa | - | - | - | - |
| 1777486039 | 16.11° C | 92% | 1007.4 hPa | - | - | - | - |
| 1777485132 | 16.11° C | 91% | 1007.3 hPa | - | - | - | - |
| 1777484232 | 16.11° C | 87% | 1007.2 hPa | - | - | - | - |
| 1777483332 | 16.11° C | 82% | 1007.3 hPa | - | - | - | - |
| 1777482432 | 16.11° C | 78% | 1007.1 hPa | - | - | - | - |
| 1777481532 | 16.67° C | 74% | 1007.1 hPa | - | - | - | - |
| 1777480632 | 17.22° C | 77% | 1007.1 hPa | - | - | - | - |
| 1777479732 | 17.22° C | 75% | 1007 hPa | - | - | - | - |
| 1777478807 | 17.22° C | 76% | 1007 hPa | - | - | - | - |
| 1777476982 | 17.22° C | 75% | 1007 hPa | - | - | - | - |
| 1777476082 | 17.22° C | 76% | 1007 hPa | - | - | - | - |
* Rain since midnight (hover to see other rain measurements)
** Current wind speed in m/s (hover to see current wind gust speed)